Regional Weather Roundup
Issued by NWS

Home | Current Version | Previous Version | Text Only | Print | Product List | Glossary Off
Versions: 1 2 3 4 5 6 7 8 9 10 11 12 13 14 15 16 17 18 19 20 21 22 23 24 25 26 27 28 29 30 31 32 33 34 35 36 37 38 39 40 41 42 43 44 45 46 47 48 49 50

000
ASUS43 KMPX 300110
RWRMN
WEATHER ROUNDUP FOR MINNESOTA
NATIONAL WEATHER SERVICE TWIN CITIES/CHANHASSEN MN
800 PM CDT MON SEP 29 2014


NOTE: "FAIR" INDICATES FEW OR NO CLOUDS BELOW 12,000 FEET WITH NO
SIGNIFICANT WEATHER AND/OR OBSTRUCTIONS TO VISIBILITY. N/A MEANS
CURRENT SKY AND/OR WEATHER CONDITIONS ARE NOT AVAILABLE.

MNZ060>063-068>070-300200-
   Twin Cities Metro

CITY           SKY/WX    TMP DP  RH WIND       PRES   REMARKS
TWIN CITIES    PTCLDY    52  44  74 N9G18     30.11S
ST PAUL        CLEAR     52  45  77 NE9       30.12S
CRYSTAL        CLEAR     51  43  74 NE7       30.11S
BLAINE         CLEAR     52  45  76 N8        30.12S
LAKEVILLE      CLEAR     48  45  87 NE6       30.10S
EDEN PRAIRIE   PTCLDY    52  45  77 NE6       30.09S
SOUTH ST PAUL  CLEAR     54  45  71 NE6       30.11R
LAKE ELMO      FAIR      50  45  81 NE7       30.12S
$$
MNZ001>005-007-008-013>017-022>024-027-028-300200-
   Northwest Minnesota

CITY           SKY/WX    TMP DP  RH WIND       PRES   REMARKS
BEMIDJI        CLEAR     48  43  81 E5        30.13F
HALLOCK        MOCLDY    50  46  87 N6        30.12S
ROSEAU         MOCLDY    48  45  87 NE5       30.14F
WARROAD        CLOUDY    54  46  76 E8        30.15S
THIEF RVR FALL CLEAR     50  45  81 E8        30.12F
CROOKSTON      CLEAR     54  46  76 E8        30.10F
FOSSTON        CLEAR     46  43  87 CALM      30.12F
DETROIT LAKES  CLEAR     52  45  76 SE6       30.12S
PARK RAPIDS    PTCLDY    50  43  77 SE6       30.13S
MAHNOMEN       FAIR      51  44  75 SE6       30.11S
$$
MNZ006-009>011-018-025>026-300200-
   North Central Minnesota

CITY           SKY/WX    TMP DP  RH WIND       PRES   REMARKS
BAUDETTE       CLEAR     45  40  82 E12       30.17S
FLAG ISLAND      N/A     50  45  81 E8        30.15S
INTL FALLS     CLOUDY    45  39  79 E6        30.20R
WASKISH        CLEAR     46  43  87 CALM      30.16S
BIG FORK       CLEAR     45  39  81 NE3       30.18S
LONGVILLE      CLOUDY    48  43  81 E5        30.15S
GRAND RAPIDS   CLOUDY    48  39  71 SE3       30.16S
CRANE LAKE     CLOUDY    43  39  87 CALM      30.22S
ORR            CLOUDY    43  37  81 CALM      30.18R
COOK           CLOUDY    45  39  81 CALM      30.20R
WALKER         MOCLDY    49  43  79 SE3       30.14S
$$
MNZ012-019>021-037-300200-
   Northeast Minnesota

CITY           SKY/WX    TMP DP  RH WIND       PRES   REMARKS
DULUTH         CLOUDY    44  38  79 E8        30.18F
ELY            CLOUDY    45  37  76 CALM      30.19S
HIBBING        CLOUDY    49  41  74 NE3       30.17S
EVELETH        CLOUDY    45  39  81 NE3       30.19R
DULUTH HARBOR  CLOUDY    48  43  81 NE13G21   30.21S
TWO HARBORS    CLOUDY    43  37  81 NE3       30.18F
SILVER BAY     PTCLDY    43  43 100 CALM      30.19S
GRAND MARAIS     N/A     46  38  73 CALM      30.23R
G MARAIS ARPRT CLOUDY    37  34  87 NW5       30.21R
$$
MNZ029>031-032-039>041-046>048-054>057-064-300200-
   West Central Minnesota

CITY           SKY/WX    TMP DP  RH WIND       PRES   REMARKS
FERGUS FALLS   CLEAR     52  45  76 SE8       30.10R
WHEATON        MOCLDY    52  46  82 E8        30.09F
MORRIS         CLEAR     54  46  76 E7        30.08S
ALEXANDRIA     CLOUDY    51  45  79 E9        30.12S
ELBOW LAKE     CLOUDY    51  45  80 SE10      30.10S
WADENA         MOCLDY    48  43  81 E10       30.12S
GLENWOOD       MOCLDY    52  46  82 E7        30.10F
APPLETON       CLEAR     55  46  71 E9        30.07S
BENSON         PTCLDY    54  46  76 E6        30.09S
ORTONVILLE     CLOUDY    55  46  71 E9        30.07S
MADISON        CLEAR     57  50  77 E9        30.07S
WILLMAR        FAIR      54  45  71 E7        30.10F
$$
MNZ033>034-036-042>043-049>051-058-059-300200-
   Central Minnesota

CITY           SKY/WX    TMP DP  RH WIND       PRES   REMARKS
ST CLOUD       CLEAR     50  43  77 NE6       30.13S
SAUK CENTRE    CLOUDY    50  45  81 NE10      30.11F
PAYNESVILLE    PTCLDY    48  44  84 NE8       30.11S
AITKIN         CLOUDY    48  43  81 CALM      30.15S
PINE RIVER     CLOUDY    48  43  81 E6        30.18S
BRAINERD       CLOUDY    48  42  80 E6        30.15S
STAPLES        CLOUDY    48  43  81 E3        30.13S
LONG PRAIRIE   FAIR      46  43  87 NE3       30.13S
LITTLE FALLS   PTCLDY    46  41  81 E3        30.14R
LITCHFIELD     CLEAR     52  48  87 E6        30.11S
BUFFALO        CLEAR     51  43  76 NE8       30.13R
MAPLE LAKE     CLEAR     50  46  86 NE7       30.13R
$$
MNZ037-044-045-052-053-300200-
   East Central Minnesota

CITY           SKY/WX    TMP DP  RH WIND       PRES   REMARKS
PRINCETON      PTCLDY    48  43  81 N7        30.14S
MORA           PTCLDY    45  37  76 NE5       30.18R
CAMBRIDGE      CLEAR     50  39  66 NE7       30.12S
RUSH CITY      CLOUDY    47  41  78 NE7       30.15S
MOOSE LAKE     CLOUDY    43  37  81 NE7       30.17R
HINCKLEY       FAIR      43  39  87 NE5       30.17R
CLOQUET        CLOUDY    45  39  81 NE7       30.18S
MCGREGOR       PTCLDY    43  41  93 E3        30.17S
$$
MNZ071>073-080-081-089-090-097-098-300200-
   Southwest Minnesota

CITY           SKY/WX    TMP DP  RH WIND       PRES   REMARKS
MONTEVIDEO     CLEAR     54  48  82 SE8       30.09R
GRANITE FALLS  CLEAR     54  47  77 NE9       30.09R
CANBY          CLEAR     53  49  85 E5        30.07S
MARSHALL       CLEAR     55  46  71 E10       30.06R
REDWOOD FALLS  CLEAR     55  47  74 E9        30.07F
OLIVIA         CLEAR     54  46  76 E3        30.08S
PIPESTONE      CLEAR     57  50  77 E8        30.03S
WINDOM         PTCLDY    55  48  76 NE8       30.06R
WORTHINGTON    CLEAR     59  52  77 NE9       30.04S
JACKSON        CLEAR     55  48  76 NE9       30.06R
TRACY          CLEAR     56  49  77 E10       30.07R
SLAYTON        CLEAR     55  50  83 CALM      30.06S
$$
MNZ065>067-074>077-082>085-091>093-300200-
   South Central Minnesota

CITY           SKY/WX    TMP DP  RH WIND       PRES   REMARKS
MANKATO        PTCLDY    55  45  67 E10       30.08S
NEW ULM        CLEAR     54  48  82 E8        30.08S
ST JAMES       CLEAR     55  48  76 NE8       30.07S
FAIRMONT       CLEAR     55  46  71 NE7       30.05S
GLENCOE        CLEAR     53  45  74 NE5       30.09S
FARIBAULT      PTCLDY    55  45  67 N5        30.09S
OWATONNA       CLEAR     54  46  76 N7        30.08S
WASECA         CLEAR     50  43  76 N6        30.09S
ALBERT LEA     CLEAR     55  48  76 NE9       30.06S
$$
MNZ078>079-086>088-094>096-300200-
   Southeast Minnesota

CITY           SKY/WX    TMP DP  RH WIND       PRES   REMARKS
ROCHESTER      CLEAR     53  47  79 NE7       30.08S
RED WING       CLEAR     54  45  71 NE5       30.09S
STANTON        MOCLDY    53  46  77 N6        30.09R
DODGE CENTER   CLOUDY    55  48  76 NE8       30.07F
WINONA         CLEAR     54  48  82 CALM      30.08R
AUSTIN         PTCLDY    54  48  82 NE7       30.06S
PRESTON        CLEAR     50  47  90 NE3       30.08R
$$
ABBREVIATIONS USED IN REMARKS
   TC - TEMPERATURES IN CELSIUS
  WCI - WIND CHILL INDEX
   HX - HEAT INDEX
  VSB - VISIBILITY
$$



USA.gov is the U.S. government's official web portal to all federal, state and local government web resources and services.